| time (UTC) | temp C | wind direction | speed KPH | gust KPH | rain 1hr cm | rain 24hr cm | rain mn cm | humidity % | barometer mb |
| 20260906095615 | 36 | 335 | 3.2 | 6.4 | 0.00 | 0.00 | 0.00 | 26 | 1010.6 |
| 20260906094504 | 36 | 31 | 0.0 | 9.7 | 0.00 | 0.00 | 0.00 | 25 | 1010.9 |
| 20260906093815 | 35 | 302 | 0.0 | 12.9 | 0.00 | 0.00 | 0.00 | 27 | 1010.9 |
| 20260906092917 | 35 | 189 | 3.2 | 6.4 | 0.00 | 0.00 | 0.00 | 26 | 1010.9 |
| 20260906092014 | 36 | 197 | 3.2 | 6.4 | 0.00 | 0.00 | 0.00 | 25 | 1011.1 |
| 20260906091117 | 36 | 254 | 0.0 | 6.4 | 0.00 | 0.00 | 0.00 | 26 | 1011.0 |
| 20260906090004 | 35 | 262 | 1.6 | 9.7 | 0.00 | 0.00 | 0.00 | 26 | 1011.1 |
| 20260906085404 | 33 | 267 | 1.6 | 9.7 | 0.00 | 0.00 | 0.00 | 28 | 1011.1 |
| 20260906084504 | 35 | 106 | 3.2 | 6.4 | 0.00 | 0.00 | 0.00 | 25 | 1011.1 |
| 20260906083815 | 35 | 148 | 3.2 | 3.2 | 0.00 | 0.00 | 0.00 | 26 | 1010.9 |
| 20260906082918 | 35 | 239 | 0.0 | 3.2 | 0.00 | 0.00 | 0.00 | 26 | 1010.9 |
| 20260906082015 | 35 | 93 | 0.0 | 6.4 | 0.00 | 0.00 | 0.00 | 26 | 1011.3 |
| 20260906081117 | 34 | 111 | 3.2 | 6.4 | 0.00 | 0.00 | 0.00 | 26 | 1011.2 |
| 20260906080004 | 35 | 107 | 0.0 | 3.2 | 0.00 | 0.00 | 0.00 | 26 | 1011.4 |
| 20260906075616 | 35 | 130 | 1.6 | 6.4 | 0.00 | 0.00 | 0.00 | 26 | 1011.3 |
| 20260906074504 | 33 | 117 | 3.2 | 6.4 | 0.00 | 0.00 | 0.00 | 27 | 1011.1 |
| 20260906073604 | 34 | 235 | 0.0 | 3.2 | 0.00 | 0.00 | 0.00 | 27 | 1011.2 |
| 20260906072704 | 33 | 247 | 1.6 | 3.2 | 0.00 | 0.00 | 0.00 | 28 | 1011.2 |
| 20260906071803 | 32 | 247 | 1.6 | 3.2 | 0.00 | 0.00 | 0.00 | 29 | 1011.0 |
| 20260906071113 | 32 | 247 | 0.0 | 3.2 | 0.00 | 0.00 | 0.00 | 30 | 1011.2 |
| 20260906070004 | 32 | 247 | 1.6 | 3.2 | 0.00 | 0.00 | 0.00 | 29 | 1011.0 |
| 20260906065403 | 30 | 247 | 0.0 | 3.2 | 0.00 | 0.00 | 0.00 | 32 | 1011.2 |
| 20260906064714 | 31 | 247 | 0.0 | 3.2 | 0.00 | 0.00 | 0.00 | 31 | 1010.9 |
| 20260906063817 | 30 | 247 | 0.0 | 3.2 | 0.00 | 0.00 | 0.00 | 32 | 1010.9 |
| 20260906062704 | 30 | 261 | 0.0 | 3.2 | 0.00 | 0.00 | 0.00 | 32 | 1010.7 |
| 20260906062016 | 29 | 270 | 1.6 | 3.2 | 0.00 | 0.00 | 0.00 | 34 | 1010.5 |
| 20260906061114 | 28 | 282 | 0.0 | 3.2 | 0.00 | 0.00 | 0.00 | 36 | 1010.4 |
| 20260906060216 | 28 | 292 | 0.0 | 3.2 | 0.00 | 0.00 | 0.00 | 37 | 1010.5 |
| 20260906055617 | 27 | 279 | 1.6 | 3.2 | 0.00 | 0.00 | 0.00 | 37 | 1010.4 |
| 20260906054503 | 27 | 292 | 0.0 | 3.2 | 0.00 | 0.00 | 0.00 | 38 | 1010.5 |
| 20260906053817 | 27 | 292 | 0.0 | 3.2 | 0.00 | 0.00 | 0.00 | 37 | 1010.4 |
| 20260906052914 | 26 | 280 | 1.6 | 6.4 | 0.00 | 0.00 | 0.00 | 38 | 1010.5 |
| 20260906052017 | 26 | 297 | 0.0 | 6.4 | 0.00 | 0.00 | 0.00 | 38 | 1010.4 |
| 20260906050904 | 25 | 299 | 1.6 | 6.4 | 0.00 | 0.00 | 0.00 | 39 | 1010.4 |
| 20260906050004 | 25 | 279 | 3.2 | 6.4 | 0.00 | 0.00 | 0.00 | 41 | 1010.6 |
| 20260906045613 | 24 | 263 | 0.0 | 3.2 | 0.00 | 0.00 | 0.00 | 41 | 1010.5 |
| 20260906044715 | 24 | 247 | 1.6 | 3.2 | 0.00 | 0.00 | 0.00 | 41 | 1010.4 |
| 20260906043813 | 23 | 247 | 0.0 | 3.2 | 0.00 | 0.00 | 0.00 | 41 | 1010.3 |
| 20260906042915 | 23 | 247 | 1.6 | 3.2 | 0.00 | 0.00 | 0.00 | 42 | 1010.3 |
| 20260906042018 | 23 | 247 | 0.0 | 3.2 | 0.00 | 0.00 | 0.00 | 41 | 1009.9 |
| 20260906040903 | 23 | 247 | 0.0 | 3.2 | 0.00 | 0.00 | 0.00 | 42 | 1010.1 |
| 20260906040004 | 23 | 251 | 0.0 | 3.2 | 0.00 | 0.00 | 0.00 | 41 | 1010.1 |
| 20260906035403 | 23 | 247 | 0.0 | 3.2 | 0.00 | 0.00 | 0.00 | 41 | 1009.8 |
| 20260906034504 | 23 | 245 | 1.6 | 3.2 | 0.00 | 0.00 | 0.00 | 41 | 1010.1 |
| 20260906033813 | 23 | 225 | 0.0 | 3.2 | 0.00 | 0.00 | 0.00 | 41 | 1009.8 |
| 20260906032703 | 23 | 225 | 0.0 | 3.2 | 0.00 | 0.00 | 0.00 | 41 | 1010.0 |
| 20260906032013 | 23 | 225 | 0.0 | 3.2 | 0.00 | 0.00 | 0.00 | 41 | 1009.7 |
| 20260906030903 | 24 | 245 | 0.0 | 3.2 | 0.00 | 0.00 | 0.00 | 41 | 1009.7 |
| 20260906030218 | 24 | 246 | 1.6 | 3.2 | 0.00 | 0.00 | 0.00 | 41 | 1010.0 |
| 20260906025614 | 24 | 247 | 0.0 | 3.2 | 0.00 | 0.00 | 0.00 | 41 | 1009.7 |
| 20260906024717 | 24 | 247 | 0.0 | 3.2 | 0.00 | 0.00 | 0.00 | 41 | 1009.5 |
| 20260906023814 | 24 | 247 | 0.0 | 3.2 | 0.00 | 0.00 | 0.00 | 41 | 1009.4 |
| 20260906022704 | 24 | 245 | 0.0 | 3.2 | 0.00 | 0.00 | 0.00 | 41 | 1009.4 |
| 20260906021803 | 24 | 241 | 0.0 | 3.2 | 0.00 | 0.00 | 0.00 | 41 | 1009.6 |
| 20260906021116 | 24 | 247 | 0.0 | 3.2 | 0.00 | 0.00 | 0.00 | 41 | 1009.4 |
| 20260906020004 | 24 | 244 | 0.0 | 3.2 | 0.00 | 0.00 | 0.00 | 41 | 1009.4 |
| 20260906015403 | 24 | 244 | 0.0 | 3.2 | 0.00 | 0.00 | 0.00 | 41 | 1009.4 |
| 20260906014503 | 24 | 251 | 0.0 | 3.2 | 0.00 | 0.00 | 0.00 | 40 | 1009.5 |
| 20260906013815 | 24 | 255 | 0.0 | 3.2 | 0.00 | 0.00 | 0.00 | 40 | 1009.4 |
| 20260906012703 | 24 | 0 | 0.0 | 0.0 | 0.00 | 0.00 | 0.00 | 40 | 1009.5 |
| 20260906011803 | 24 | 0 | 0.0 | 0.0 | 0.00 | 0.00 | 0.00 | 40 | 1009.7 |
| 20260906011117 | 24 | 270 | 0.0 | 3.2 | 0.00 | 0.00 | 0.00 | 40 | 1009.7 |
| 20260906010214 | 25 | 270 | 0.0 | 3.2 | 0.00 | 0.00 | 0.00 | 40 | 1009.7 |
| 20260906005404 | 25 | 270 | 0.0 | 6.4 | 0.00 | 0.00 | 0.00 | 39 | 1009.6 |
| 20260906004713 | 25 | 270 | 3.2 | 6.4 | 0.00 | 0.00 | 0.00 | 39 | 1009.8 |
| 20260906003815 | 24 | 270 | 0.0 | 3.2 | 0.00 | 0.00 | 0.00 | 40 | 1009.3 |
| 20260906002703 | 25 | 270 | 0.0 | 3.2 | 0.00 | 0.00 | 0.00 | 39 | 1009.5 |
| 20260906002015 | 25 | 270 | 0.0 | 3.2 | 0.00 | 0.00 | 0.00 | 39 | 1009.8 |
| 20260906000903 | 25 | 270 | 1.6 | 3.2 | 0.00 | 0.00 | 0.00 | 39 | 1009.6 |
| 20260906000215 | 25 | 265 | 0.0 | 3.2 | 0.00 | 0.00 | 0.00 | 39 | 1009.7 |
| 20260905235404 | 25 | 242 | 1.6 | 3.2 | 0.00 | 0.00 | 0.00 | 39 | 1009.6 |
| 20260905234713 | 25 | 236 | 0.0 | 3.2 | 0.00 | 0.00 | 0.00 | 39 | 1009.6 |
| 20260905233816 | 25 | 239 | 0.0 | 3.2 | 0.00 | 0.00 | 0.00 | 39 | 1009.9 |
| 20260905232704 | 25 | 247 | 0.0 | 3.2 | 0.00 | 0.00 | 0.00 | 39 | 1010.0 |
| 20260905232016 | 26 | 241 | 0.0 | 3.2 | 0.00 | 0.00 | 0.00 | 39 | 1010.1 |
| 20260905231113 | 26 | 241 | 0.0 | 6.4 | 0.00 | 0.00 | 0.00 | 38 | 1010.3 |
| 20260905230004 | 26 | 225 | 0.0 | 3.2 | 0.00 | 0.00 | 0.00 | 39 | 1010.2 |
| 20260905225617 | 25 | 225 | 0.0 | 3.2 | 0.00 | 0.00 | 0.00 | 39 | 1010.2 |
| 20260905224503 | 26 | 228 | 0.0 | 3.2 | 0.00 | 0.00 | 0.00 | 38 | 1010.3 |
| 20260905223603 | 26 | 247 | 0.0 | 3.2 | 0.00 | 0.00 | 0.00 | 38 | 1010.4 |
| 20260905222914 | 26 | 247 | 0.0 | 3.2 | 0.00 | 0.00 | 0.00 | 38 | 1010.5 |
| 20260905221804 | 26 | 0 | 0.0 | 0.0 | 0.00 | 0.00 | 0.00 | 38 | 1010.6 |
| 20260905221113 | 26 | 0 | 0.0 | 0.0 | 0.00 | 0.00 | 0.00 | 38 | 1010.4 |
| 20260905220216 | 26 | 0 | 0.0 | 0.0 | 0.00 | 0.00 | 0.00 | 38 | 1010.4 |
| 20260905215617 | 26 | 247 | 0.0 | 3.2 | 0.00 | 0.00 | 0.00 | 38 | 1010.4 |
| 20260905214715 | 26 | 247 | 0.0 | 3.2 | 0.00 | 0.00 | 0.00 | 38 | 1010.2 |
| 20260905213817 | 26 | 281 | 0.0 | 3.2 | 0.00 | 0.00 | 0.00 | 38 | 1010.4 |
| 20260905212914 | 27 | 292 | 0.0 | 3.2 | 0.00 | 0.00 | 0.00 | 36 | 1010.4 |
| 20260905212017 | 27 | 286 | 0.0 | 3.2 | 0.00 | 0.00 | 0.00 | 37 | 1010.4 |
| 20260905210904 | 27 | 292 | 0.0 | 3.2 | 0.00 | 0.00 | 0.00 | 38 | 1010.3 |
| 20260905210222 | 27 | 0 | 0.0 | 0.0 | 0.00 | 0.00 | 0.00 | 37 | 1010.3 |
| 20260905205613 | 27 | 0 | 0.0 | 0.0 | 0.00 | 0.00 | 0.00 | 37 | 1010.4 |
| 20260905204715 | 27 | 0 | 0.0 | 0.0 | 0.00 | 0.00 | 0.00 | 37 | 1010.4 |
| 20260905203813 | 27 | 292 | 0.0 | 3.2 | 0.00 | 0.00 | 0.00 | 36 | 1010.4 |
| 20260905202915 | 27 | 0 | 0.0 | 0.0 | 0.00 | 0.00 | 0.00 | 37 | 1010.4 |
| 20260905202017 | 27 | 0 | 0.0 | 0.0 | 0.00 | 0.00 | 0.00 | 36 | 1010.4 |
| 20260905200903 | 27 | 0 | 0.0 | 0.0 | 0.00 | 0.00 | 0.00 | 36 | 1010.2 |
| 20260905200004 | 27 | 0 | 0.0 | 0.0 | 0.00 | 0.00 | 0.00 | 35 | 1010.4 |
| 20260905195403 | 28 | 292 | 0.0 | 3.2 | 0.00 | 0.00 | 0.00 | 34 | 1010.6 |
| 20260905194504 | 28 | 0 | 0.0 | 0.0 | 0.00 | 0.00 | 0.00 | 35 | 1010.3 |
| 20260905193813 | 28 | 0 | 0.0 | 0.0 | 0.00 | 0.00 | 0.00 | 34 | 1010.6 |
| 20260905192916 | 28 | 292 | 0.0 | 3.2 | 0.00 | 0.00 | 0.00 | 34 | 1010.3 |
| 20260905191804 | 28 | 292 | 1.6 | 3.2 | 0.00 | 0.00 | 0.00 | 34 | 1010.4 |
| 20260905191115 | 28 | 298 | 0.0 | 6.4 | 0.00 | 0.00 | 0.00 | 34 | 1010.5 |
| 20260905190004 | 28 | 280 | 3.2 | 6.4 | 0.00 | 0.00 | 0.00 | 34 | 1010.5 |
| 20260905185614 | 28 | 271 | 1.6 | 3.2 | 0.00 | 0.00 | 0.00 | 34 | 1010.5 |
| 20260905184717 | 28 | 310 | 0.0 | 6.4 | 0.00 | 0.00 | 0.00 | 35 | 1010.1 |
| 20260905183814 | 28 | 292 | 0.0 | 6.4 | 0.00 | 0.00 | 0.00 | 35 | 1010.2 |
| 20260905182704 | 28 | 268 | 3.2 | 6.4 | 0.00 | 0.00 | 0.00 | 35 | 1009.9 |
| 20260905181804 | 28 | 280 | 0.0 | 6.4 | 0.00 | 0.00 | 0.00 | 34 | 1010.1 |
| 20260905181116 | 28 | 274 | 0.0 | 3.2 | 0.00 | 0.00 | 0.00 | 34 | 1010.0 |
| 20260905180213 | 29 | 284 | 1.6 | 9.7 | 0.00 | 0.00 | 0.00 | 34 | 1010.1 |
| 20260905175404 | 29 | 242 | 1.6 | 3.2 | 0.00 | 0.00 | 0.00 | 34 | 1010.0 |
| 20260905174717 | 29 | 249 | 3.2 | 6.4 | 0.00 | 0.00 | 0.00 | 34 | 1009.8 |
| 20260905173815 | 29 | 248 | 1.6 | 6.4 | 0.00 | 0.00 | 0.00 | 34 | 1009.8 |
| 20260905172917 | 29 | 249 | 1.6 | 6.4 | 0.00 | 0.00 | 0.00 | 33 | 1009.9 |
| 20260905171803 | 30 | 255 | 3.2 | 6.4 | 0.00 | 0.00 | 0.00 | 34 | 1009.5 |
| 20260905170904 | 30 | 230 | 3.2 | 6.4 | 0.00 | 0.00 | 0.00 | 34 | 1009.5 |
| 20260905170214 | 30 | 239 | 3.2 | 6.4 | 0.00 | 0.00 | 0.00 | 34 | 1009.5 |
| 20260905165404 | 30 | 236 | 3.2 | 6.4 | 0.00 | 0.00 | 0.00 | 33 | 1009.6 |
| 20260905164713 | 30 | 234 | 3.2 | 6.4 | 0.00 | 0.00 | 0.00 | 32 | 1009.5 |
| 20260905163603 | 31 | 249 | 3.2 | 12.9 | 0.00 | 0.00 | 0.00 | 30 | 1009.5 |
| 20260905162918 | 32 | 251 | 4.8 | 12.9 | 0.00 | 0.00 | 0.00 | 29 | 1009.5 |
| 20260905162015 | 32 | 246 | 3.2 | 6.4 | 0.00 | 0.00 | 0.00 | 28 | 1009.6 |
| 20260905161117 | 32 | 249 | 3.2 | 14.5 | 0.00 | 0.00 | 0.00 | 28 | 1009.3 |
| 20260905160215 | 32 | 241 | 6.4 | 14.5 | 0.00 | 0.00 | 0.00 | 27 | 1009.6 |
| 20260905155616 | 33 | 244 | 4.8 | 9.7 | 0.00 | 0.00 | 0.00 | 27 | 1009.8 |
| 20260905154504 | 33 | 302 | 1.6 | 20.9 | 0.00 | 0.00 | 0.00 | 26 | 1009.5 |
| 20260905153816 | 33 | 339 | 3.2 | 20.9 | 0.00 | 0.00 | 0.00 | 27 | 1009.8 |
| 20260905152913 | 33 | 290 | 4.8 | 27.4 | 0.00 | 0.00 | 0.00 | 27 | 1009.6 |
| 20260905152016 | 33 | 280 | 3.2 | 22.5 | 0.00 | 0.00 | 0.00 | 26 | 1009.7 |
| 20260905151113 | 33 | 285 | 12.9 | 25.7 | 0.00 | 0.00 | 0.00 | 27 | 1009.6 |
| 20260905150215 | 33 | 318 | 6.4 | 22.5 | 0.00 | 0.00 | 0.00 | 27 | 1009.7 |
| 20260905145403 | 34 | 304 | 3.2 | 17.7 | 0.00 | 0.00 | 0.00 | 26 | 1009.3 |
| 20260905144503 | 34 | 331 | 3.2 | 27.4 | 0.00 | 0.00 | 0.00 | 26 | 1009.5 |
| 20260905143816 | 33 | 307 | 4.8 | 29.0 | 0.00 | 0.00 | 0.00 | 26 | 1009.5 |
| 20260905142704 | 33 | 301 | 4.8 | 37.0 | 0.00 | 0.00 | 0.00 | 27 | 1009.4 |
| 20260905142016 | 32 | 287 | 20.9 | 32.2 | 0.00 | 0.00 | 0.00 | 28 | 1009.4 |
| 20260905141113 | 33 | 274 | 6.4 | 29.0 | 0.00 | 0.00 | 0.00 | 27 | 1009.4 |
| 20260905140004 | 33 | 298 | 8.0 | 29.0 | 0.00 | 0.00 | 0.00 | 27 | 1009.6 |
| 20260905135617 | 33 | 304 | 12.9 | 29.0 | 0.00 | 0.00 | 0.00 | 27 | 1009.3 |
| 20260905134715 | 33 | 311 | 12.9 | 29.0 | 0.00 | 0.00 | 0.00 | 27 | 1009.4 |
| 20260905133817 | 32 | 285 | 14.5 | 24.1 | 0.00 | 0.00 | 0.00 | 28 | 1009.4 |
| 20260905132914 | 35 | 284 | 6.4 | 24.1 | 0.00 | 0.00 | 0.00 | 28 | 1009.5 |
| 20260905132017 | 35 | 280 | 3.2 | 14.5 | 0.00 | 0.00 | 0.00 | 28 | 1009.5 |
| 20260905131114 | 35 | 261 | 4.8 | 14.5 | 0.00 | 0.00 | 0.00 | 27 | 1009.6 |
| 20260905130004 | 35 | 239 | 6.4 | 12.9 | 0.00 | 0.00 | 0.00 | 28 | 1009.5 |
| 20260905125404 | 35 | 244 | 4.8 | 11.3 | 0.00 | 0.00 | 0.00 | 28 | 1009.6 |
| 20260905124715 | 35 | 240 | 3.2 | 11.3 | 0.00 | 0.00 | 0.00 | 28 | 1009.6 |
| 20260905123603 | 34 | 255 | 3.2 | 11.3 | 0.00 | 0.00 | 0.00 | 28 | 1009.4 |
| 20260905122703 | 33 | 249 | 4.8 | 17.7 | 0.00 | 0.00 | 0.00 | 28 | 1009.8 |
| 20260905121803 | 34 | 237 | 3.2 | 11.3 | 0.00 | 0.00 | 0.00 | 28 | 1009.7 |
| 20260905120903 | 34 | 261 | 3.2 | 12.9 | 0.00 | 0.00 | 0.00 | 28 | 1009.8 |
| 20260905120217 | 34 | 247 | 6.4 | 12.9 | 0.00 | 0.00 | 0.00 | 29 | 1009.7 |
| 20260905115403 | 33 | 261 | 4.8 | 12.9 | 0.00 | 0.00 | 0.00 | 29 | 1009.8 |
| 20260905114504 | 33 | 253 | 4.8 | 12.9 | 0.00 | 0.00 | 0.00 | 29 | 1010.0 |
| 20260905113813 | 33 | 264 | 3.2 | 12.9 | 0.00 | 0.00 | 0.00 | 30 | 1010.1 |
| 20260905112704 | 33 | 226 | 4.8 | 12.9 | 0.00 | 0.00 | 0.00 | 31 | 1010.2 |
| 20260905111803 | 33 | 235 | 6.4 | 11.3 | 0.00 | 0.00 | 0.00 | 30 | 1010.1 |
| 20260905110903 | 33 | 230 | 4.8 | 11.3 | 0.00 | 0.00 | 0.00 | 31 | 1010.2 |
| 20260905110218 | 33 | 245 | 6.4 | 17.7 | 0.00 | 0.00 | 0.00 | 30 | 1010.2 |
| 20260905105403 | 32 | 238 | 8.0 | 17.7 | 0.00 | 0.00 | 0.00 | 31 | 1010.3 |
| 20260905104717 | 33 | 261 | 3.2 | 11.3 | 0.00 | 0.00 | 0.00 | 30 | 1009.8 |
| 20260905103814 | 32 | 260 | 4.8 | 12.9 | 0.00 | 0.00 | 0.00 | 31 | 1010.2 |
| 20260905102704 | 33 | 251 | 4.8 | 12.9 | 0.00 | 0.00 | 0.00 | 31 | 1010.1 |
| 20260905101804 | 32 | 243 | 3.2 | 14.5 | 0.00 | 0.00 | 0.00 | 31 | 1010.2 |
| 20260905101116 | 32 | 247 | 6.4 | 17.7 | 0.00 | 0.00 | 0.00 | 31 | 1010.2 |
| 20260905100004 | 32 | 256 | 3.2 | 22.5 | 0.00 | 0.00 | 0.00 | 30 | 1010.4 |